Location: A�t Oumchat
(32.5791°N, 5.2215°W)
Time: 01:35:51
(UTC+00:00)

Daily predictions for brighter satellites

Satellite Brightness Start Highest point End
(mag) Time Altitude Azimuth Time Altitude Azimuth Time Altitude Azimuth
Cosmos 2322 Rocket 4.3 02:54:20 23° NE 02:54:20 23° NE 02:56:44 10° NE
SL-16 R/B 4.0 03:06:39 26° NE 03:06:39 26° NE 03:09:06 10° NNE
USA 267 3.9 03:31:43 10° NNE 03:36:57 44° NNW 03:36:57 44° NNW
Cosmos 540 Rocket 4.4 03:38:54 45° ENE 03:38:54 45° ENE 03:43:04 10° NNE
MSX 4.0 03:43:44 10° NNE 03:48:32 63° N 03:48:32 63° N
Cosmos 2333 Rocket 4.3 03:47:18 10° SSE 03:51:44 23° E 03:56:10 10° NE
Cosmos 990 Rocket 4.2 03:48:41 10° N 03:53:52 66° ENE 03:59:03 10° SSE
PAYLOAD A 4.4 03:52:16 10° NNE 03:56:52 54° E 03:57:13 52° ESE
ATLAS 2AS CENTAUR R/B 4.4 03:51:16 10° N 03:57:37 30° NE 04:03:30 10° ESE
Cosmos 1570 Rocket 4.0 03:58:30 78° ENE 03:58:30 78° ENE 04:03:37 10° NNE
BREEZE M DEB (TANK) 4.4 03:45:41 10° NW 03:58:32 49° NNE 04:02:33 10° E
BREEZE-M DEB (TANK) 4.1 03:59:36 47° WNW 04:00:18 49° NW 04:04:25 10° NE
IDEFIX/ARIANE 42P 4.1 04:00:59 10° N 04:03:12 23° NNW 04:03:12 23° NNW
PSLV R/B 4.0 04:01:57 10° NNE 04:05:44 57° ENE 04:05:44 57° ENE
SL-8 R/B 3.9 04:09:38 64° SE 04:09:38 64° SE 04:13:39 10° SE
H-2A R/B 2.5 04:06:13 10° SSE 04:10:31 61° ENE 04:14:56 10° N
Cosmos 2360 Rocket 2.0 04:15:01 66° WSW 04:15:41 74° WNW 04:21:22 10° NNE
ALOS 4.2 04:15:59 10° NE 04:19:59 28° E 04:23:59 10° SSE
Cosmos 1153 Rocket 4.4 04:17:50 10° NNW 04:24:08 69° W 04:30:19 10° S
Cosmos 1000 Rocket 4.4 04:21:10 10° S 04:27:22 86° W 04:33:33 10° N
CZ-2C R/B 2.4 04:22:44 10° N 04:27:56 80° WNW 04:30:37 29° SSW
Cosmos 2263 Rocket 4.1 04:39:25 14° SSW 04:39:25 14° SSW 04:40:11 10° SSW
ATLAS CENTAUR Rocket 3.2 04:28:24 29° W 04:35:23 68° S 04:40:03 10° ESE
Cosmos 2322 Rocket 3.4 04:36:12 25° NW 04:36:12 25° NW 04:40:16 10° N
X-37B 1.2 04:36:50 51° NNE 04:37:02 52° NNE 04:40:08 10° ESE
Cosmos 1484 Rocket 4.1 04:33:23 10° NNE 04:37:12 42° E 04:41:00 10° S
Cosmos 1844 Rocket 3.8 04:34:09 10° N 04:39:35 46° ENE 04:44:58 10° SE
Hubble Space Telescope 2.6 04:39:46 19° S 04:40:56 21° SSE 04:44:05 10° ESE
Chandra Rocket (1) 4.4 04:34:08 26° W 04:41:19 41° SW 04:46:58 10° SSE
Okean 1 3.7 04:37:19 10° S 04:41:19 63° E 04:45:19 10° NNE
Cosmos 1898 Rocket 3.7 04:37:04 10° NNW 04:42:04 44° WSW 04:47:05 10° S
SL-16 R/B 3.9 04:48:34 16° NW 04:48:34 16° NW 04:51:24 10° NNW
Cosmos 1437 Rocket 2.5 04:45:54 24° SSW 04:48:04 77° W 04:51:54 10° N
Meteor 1-11 Rocket 4.0 04:43:02 10° NNW 04:48:22 43° W 04:53:35 10° SSW
Cosmos 858 Rocket 4.5 04:43:36 10° NNW 04:48:41 56° WSW 04:53:45 10° S
Meteor 1-27 Rocket 4.4 04:47:34 31° W 04:48:48 34° WNW 04:54:07 10° NNW
Meteor 1-31 Rocket 3.7 04:46:21 10° NNE 04:50:06 48° E 04:53:50 10° S
deb Chang Zheng 4 3.4 04:52:55 10° N 04:57:12 78° WNW 05:01:25 10° SSW
Cosmos 1703 Rocket 3.9 04:56:51 10° S 05:01:08 67° E 05:05:26 10° NNE
Cosmos 1937 Rocket 3.8 04:56:39 10° NNW 05:01:26 40° WSW 05:06:11 10° S
Okean 1-7 3.5 04:57:35 10° S 05:01:46 60° E 05:05:57 10° NNE
Cosmos 2100 Rocket 4.1 04:56:58 10° NNW 05:03:08 53° W 05:09:15 10° SSW
Cosmos 2219 Rocket 2.1 04:57:55 10° SSW 05:03:35 84° WNW 05:09:17 10° NNE
Cosmos 1536 3.6 05:00:40 10° NNW 05:04:11 29° W 05:07:40 10° SSW
Cosmos 1908 Rocket 4.2 05:01:57 10° N 05:06:23 60° E 05:10:47 10° SSE
Intercosmos 25 3.4 05:02:33 10° SSW 05:06:51 48° W 05:10:06 10° N
Cosmos 1459 Rocket 4.0 05:01:10 10° NNW 05:07:02 53° W 05:12:52 10° SSW
FALCON 9 DEB 3.8 05:06:31 14° SSW 05:09:03 46° SE 05:12:04 10° NE
CZ-4B R/B 1.1 05:06:34 10° S 05:09:43 82° WSW 05:12:57 10° NNW
ERS-2 2.6 05:08:55 10° SSW 05:12:18 36° W 05:15:43 10° NNW
BREEZE-M DEB (TANK) 3.9 05:10:06 17° SW 05:13:05 88° NW 05:25:29 10° NE
Cosmos 1802 Rocket 4.0 05:07:22 10° NNW 05:13:29 60° W 05:19:40 10° S
CZ-4B R/B 3.5 05:10:10 10° NNE 05:13:40 51° E 05:17:09 10° S
Cosmos 2123 Rocket 4.1 05:09:57 10° SSW 05:16:04 57° W 05:22:15 10° N
CZ-4B R/B 4.1 05:14:00 10° N 05:18:25 69° WNW 05:22:52 10° SSW
ADEOS Rocket 3.3 05:13:13 10° S 05:19:56 54° W 05:26:00 10° NNW
Cosmos 2150 Rocket 4.2 05:17:46 10° NNW 05:23:13 81° ENE 05:28:33 10° SSE
Cosmos 2237 Rocket 3.6 05:18:06 10° S 05:23:22 42° ESE 05:28:39 10° NE
NOSS 3-4 (A) 4.0 05:17:59 10° NW 05:25:13 62° WSW 05:33:06 10° SSE
NOSS 3-4 (C) 4.0 05:18:05 10° NW 05:25:20 62° WSW 05:33:13 10° SSE
ATLAS CENTAUR R/B 4.5 05:21:51 10° NNW 05:25:41 17° NNE 05:28:04 10° ENE
COSMOS 2428 2.8 05:20:57 10° SSW 05:26:33 61° WNW 05:32:14 10° NNE
Cosmos 1544 3.0 05:23:50 10° NNW 05:27:22 60° W 05:30:53 10° S
Cosmos 1733 Rocket 4.1 05:25:23 10° NW 05:28:44 22° W 05:32:03 10° SW
Cosmos 1743 3.2 05:25:56 10° NNW 05:29:26 35° W 05:32:56 10° SSW
SKYMED 2 4.2 05:28:13 10° SSE 05:32:28 60° ENE 05:36:45 10° N
OAO 3 Rocket 3.3 05:28:00 12° WSW 05:32:37 79° SSE 05:37:35 10° ENE
Cosmos 2242 Rocket 4.2 05:29:29 10° SW 05:33:28 34° W 05:37:29 10° NNW
Meteor PRIRODA 3.6 05:30:16 10° NNE 05:33:55 87° ESE 05:37:31 10° SSW
Cosmos 2333 Rocket 2.7 05:30:19 10° SW 05:35:40 39° WNW 05:41:03 10° N
Delta 2 Rocket 3.0 05:32:34 10° WSW 05:35:50 63° SSE 05:39:09 10° ENE
METEOR-M 4.3 05:32:22 10° N 05:37:33 51° WNW 05:42:41 10° SSW
Cosmos 1242 Rocket 3.2 05:35:02 10° S 05:38:38 62° E 05:42:16 10° NNE
ADEOS 4.4 05:35:34 10° N 05:40:01 29° WNW 05:44:28 10° SW
USA 276 4.3 05:38:13 10° NNW 05:40:58 25° NE 05:43:41 10° E
Cosmos 1689 Rocket 2.0 05:41:56 10° S 05:44:50 63° WSW 05:47:47 10° NNW
SAR-Lupe-4 4.3 05:41:49 10° SSW 05:45:03 32° W 05:48:18 10° NW
Yuri Rocket 3.8 05:42:03 10° WSW 05:46:19 52° S 05:51:42 10° ESE
H-2A R/B 3.5 05:42:24 10° NNE 05:46:45 55° E 05:51:09 10° S
ATLAS 2AS CENTAUR R/B 3.0 05:41:56 10° NW 05:48:44 47° WSW 05:55:00 10° S
PSLV R/B 3.9 05:45:12 10° S 05:49:14 80° W 05:53:20 10° NNW
FALCON 9 DEB 3.2 05:46:46 10° WSW 05:49:50 48° NW 05:52:54 10° NNE
USA 234 3.3 05:44:37 10° SE 05:51:07 71° SW 05:57:38 10° NW
